Flag for Germany Past Weather in Mörfelden-Walldorf, Hesse, Germany — Yesterday and Last 2 Weeks

Now
54 °F

Partly sunny.


Feels Like: 51 °F
Forecast: 46 / 67 °F
Wind: 8 mph from Northwest

Location: Frankfurt-M-Flughafen Airport

Current Time: May 24, 2016 at 7:56:06 PM

Latest Report: May 24, 2016 at 7:20 PM


Visibility: N/A

Pressure: 29.98 "Hg

Humidity: 77%

Dew Point: 46 °F

Location of Mörfelden-WalldorfLocation

Past Weather in Mörfelden-Walldorf — Graph

°F

Mörfelden-Walldorf Temperature Yesterday

Maximum temperature yesterday: 61 °F (at 1:20 PM)
Minimum temperature yesterday: 54 °F (at 6:20 AM)
Average temperature yesterday: 57 °F

High & Low Weather Summary for the Past Weeks

 TemperatureHumidityPressure
High81 °F (May 22, 3:20 PM)100% (May 13, 11:50 PM)30.12 "Hg (May 13, 11:50 PM)
Low41 °F (May 15, 5:50 AM)24% (May 22, 3:50 PM)29.45 "Hg (May 12, 8:20 PM)
Average58 °F66%29.87 "Hg
* Reported May 9 6:20 PM — May 24 6:20 PM, Mörfelden-Walldorf, Weather by CustomWeather, © 2016

Note: Actual official high and low records may vary slightly from our data, if they occured in-between our weather recording intervals... More about our weather records

Advertising

Mörfelden-Walldorf Weather History for the Previous 24 Hours

Scroll right to see more
 ConditionsComfort  
Time TempWeatherWind HumidityBarometerVisibility
6:20 PM
Tue, May 24
54 °FMore clouds than sun.9 mph82%29.98 "HgN/A
5:50 PM54 °FOvercast.10 mph77%29.98 "HgN/A
5:20 PM54 °FLight rain. Overcast.10 mph82%29.98 "HgN/A
4:50 PM54 °FLight rain. More clouds than sun.10 mph82%29.98 "HgN/A
4:20 PM54 °FLight rain. More clouds than sun.10 mph82%29.98 "HgN/A
3:50 PM54 °FLight rain. Mostly cloudy.13 mph82%29.98 "HgN/A
3:20 PM54 °FLight rain. More clouds than sun.10 mph88%29.98 "HgN/A
2:50 PM54 °FLight rain. More clouds than sun.13 mph88%29.98 "HgN/A
2:20 PM54 °FLight rain. Overcast.12 mph88%29.98 "HgN/A
1:50 PM52 °FRain. Overcast.12 mph88%29.98 "HgN/A
1:20 PM54 °FRain. Overcast.10 mph82%29.98 "HgN/A
12:50 PM54 °FLight rain. Overcast.10 mph88%29.98 "HgN/A
12:20 PM52 °FRain. Mostly cloudy.13 mph88%29.98 "HgN/A
11:50 AM52 °FRain. Mostly cloudy.12 mph88%29.98 "HgN/A
11:20 AM52 °FRain. Cloudy.10 mph88%29.98 "HgN/A
10:50 AM52 °FLight rain. More clouds than sun.10 mph88%29.98 "HgN/A
10:20 AM52 °FLight rain. More clouds than sun.12 mph88%29.95 "HgN/A
9:50 AM52 °FLight rain. Overcast.10 mph88%29.95 "HgN/A
9:20 AM52 °FLight rain. More clouds than sun.12 mph82%29.95 "HgN/A
8:50 AM52 °FLight rain. More clouds than sun.13 mph82%29.95 "HgN/A
8:20 AM54 °FScattered showers. Partly sunny.14 mph77%29.95 "HgN/A
7:50 AM54 °FPartly sunny.13 mph77%29.95 "HgN/A
7:20 AM54 °FPartly sunny.12 mph77%29.95 "HgN/A
6:50 AM54 °FBroken clouds.8 mph77%29.92 "HgN/A
6:20 AM54 °FPartly cloudy.6 mph77%29.92 "HgN/A
5:50 AM54 °FPartly cloudy.9 mph77%29.92 "HgN/A
5:20 AM54 °FPassing clouds.9 mph77%29.92 "HgN/A
4:50 AM54 °FPassing clouds.9 mph77%29.92 "HgN/A
4:20 AM54 °FPassing clouds.9 mph77%29.92 "HgN/A
3:50 AM54 °FPassing clouds.12 mph77%29.92 "HgN/A
3:20 AM54 °FPassing clouds.12 mph77%29.92 "HgN/A
2:50 AM54 °FPassing clouds.14 mph82%29.92 "HgN/A
2:20 AM54 °FPassing clouds.14 mph77%29.92 "HgN/A
1:50 AM54 °FPassing clouds.9 mph82%29.92 "HgN/A
1:20 AM54 °FPassing clouds.12 mph77%29.92 "HgN/A
12:50 AM55 °FPassing clouds.12 mph77%29.92 "HgN/A
12:20 AM55 °FPassing clouds.12 mph77%29.92 "HgN/A
11:50 PM
Mon, May 23
55 °FPassing clouds.12 mph77%29.92 "HgN/A
11:20 PM55 °FPassing clouds.10 mph77%29.92 "HgN/A
10:50 PM55 °FPassing clouds.10 mph77%29.92 "HgN/A
10:20 PM55 °FPassing clouds.8 mph77%29.92 "HgN/A
9:50 PM55 °FPartly sunny.9 mph77%29.92 "HgN/A
9:20 PM55 °FScattered showers. Broken clouds.13 mph77%29.92 "HgN/A
8:50 PM55 °FScattered showers. Broken clouds.12 mph77%29.92 "HgN/A
8:20 PM57 °FScattered showers. Broken clouds.15 mph72%29.92 "HgN/A
7:50 PM57 °FScattered showers. Broken clouds.14 mph72%29.89 "HgN/A
7:20 PM59 °FBroken clouds.14 mph68%29.89 "HgN/A
Weather by CustomWeather, © 2016

See weather overviewHow to use our weather pages